Weather History for Ardmore, OK

Change the Weather History Date:

Tuesday, October 29, 2013

  Actual Average Record
Temperature  
Mean Temperature 72 °F -  
Max Temperature 77 °F 67 °F 84 °F (1998)
Min Temperature 68 °F 50 °F 30 °F (2012)
Cooling Degree Days 8    
Growing Degree Days 22 (Base 50)    
Moisture  
Dew Point 67 °F    
Average Humidity 89    
Maximum Humidity 95    
Minimum Humidity 78    
Precipitation  
Precipitation 0.00 in - - ()
Sea Level Pressure  
Sea Level Pressure 30.03 in    
Wind  
Wind Speed 10 mph (SSE)    
Max Wind Speed 21 mph    
Max Gust Speed 25 mph    
Visibility 10 miles    
Events      
Averages and records for this station are not official NWS values.
T = Trace of Precipitation, MM = Missing Value Source: NWS Daily Summary

Daily Weather History Graph

Daily Weather History Graph

Search for Another Location

Airport:

Trip Planner

Search our weather history database for the weather conditions in past years. The results will help you decide how hot, cold, wet, or windy it might be!

Date:

Astronomy

Oct. 29, 2013 Rise Set
Actual Time 7:45 AM CDT 6:37 PM CDT
Civil Twilight 7:19 AM CDT 7:03 PM CDT
Nautical Twilight 6:50 AM CDT 7:32 PM CDT
Astronomical Twilight 6:20 AM CDT 8:02 PM CDT
Moon 2:49 AM CDT (10/29) 3:40 PM CDT (10/29)
Length of Visible Light 11h 43m
Length of Day
10h 51m
Waning Crescent, 25% of the Moon is Illuminated
Oct 29
Waning Crescent
Nov 3
New
Nov 9
First Quarter
Nov 17
Full
Nov 25
Last Quarter

Hourly Weather History & Observations

Time (CDT) Temp. Dew Point Humidity Pressure Visibility Wind Dir Wind Speed Gust Speed Precip Events Conditions
12:15 AM 68.4 °F 65.5 °F 90% 30.06 in 10.0 mi SE 9.2 mph 17.3 mph N/A   Overcast
12:35 AM 68.4 °F 65.5 °F 90% 30.05 in 10.0 mi SE 10.4 mph - N/A   Overcast
12:55 AM 68.2 °F 65.5 °F 91% 30.05 in 10.0 mi ESE 9.2 mph - N/A   Overcast
1:15 AM 68.2 °F 65.5 °F 91% 30.05 in 10.0 mi SE 10.4 mph 16.1 mph N/A   Overcast
1:35 AM 68.2 °F 65.7 °F 92% 30.04 in 10.0 mi SE 8.1 mph - N/A   Overcast
1:55 AM 68.0 °F 65.7 °F 92% 30.03 in 10.0 mi SE 11.5 mph 16.1 mph N/A   Overcast
2:15 AM 68.4 °F 65.8 °F 92% 30.03 in 10.0 mi SE 11.5 mph 18.4 mph N/A   Overcast
2:35 AM 68.2 °F 65.8 °F 92% 30.03 in 10.0 mi SE 10.4 mph 16.1 mph N/A   Overcast
2:55 AM 68.2 °F 65.8 °F 92% 30.04 in 10.0 mi SE 8.1 mph - N/A   Overcast
3:15 AM 68.2 °F 66.2 °F 93% 30.03 in 10.0 mi SE 6.9 mph - N/A   Overcast
3:35 AM 68.2 °F 66.2 °F 93% 30.02 in 10.0 mi SE 9.2 mph - N/A   Overcast
3:55 AM 68.5 °F 66.2 °F 92% 30.02 in 10.0 mi SE 6.9 mph - N/A   Overcast
4:15 AM 69.6 °F 66.6 °F 90% 30.02 in 10.0 mi SSE 11.5 mph - N/A   Overcast
5:55 AM 68.9 °F 66.4 °F 92% 30.02 in 10.0 mi SSE 8.1 mph - N/A   Mostly Cloudy
6:55 AM 68.0 °F 66.2 °F 94% 30.04 in 10.0 mi SSE 4.6 mph - N/A   Overcast
8:55 AM 69.8 °F 66.2 °F 88% 30.05 in 10.0 mi SSE 6.9 mph - N/A   Overcast
10:55 AM 73.4 °F 68.0 °F 83% 30.05 in 10.0 mi South 13.8 mph 20.7 mph N/A   Overcast
11:55 AM 75.2 °F 68.0 °F 78% 30.03 in 10.0 mi South 11.5 mph - N/A   Overcast
12:55 PM 77.0 °F 69.8 °F 78% 30.02 in 10.0 mi South 8.1 mph 18.4 mph N/A   Overcast
1:55 PM 77.0 °F 69.8 °F 78% 29.99 in 10.0 mi South 10.4 mph - N/A   Overcast
3:55 PM 77.0 °F 69.8 °F 78% 29.96 in 10.0 mi SSE 20.7 mph 25.3 mph N/A   Scattered Clouds
6:57 PM 73.4 °F 69.8 °F 88% 29.97 in 10.0 mi SSE 10.4 mph - N/A   Mostly Cloudy
11:35 PM 70.3 °F 68.9 °F 95% 30.00 in 10.0 mi SSE 8.1 mph - N/A   Overcast
11:55 PM 70.7 °F 68.9 °F 94% 30.00 in 10.0 mi South 8.1 mph - N/A   Overcast